Total_Precipitation_Accumulation
0.13 0.30 0.65 1.09 1.95 2.09 1.61 0.95 0.74 0.58 0.57 0.62 0.63 0.64 0.73 0.95 1.35 2.05 1.80 1.26 0.84 0.78 0.93 1.26 1.65 1.68 1.78 1.73 1.56 1.56 1.53 1.53 1.56 1.59 1.65 1.76 1.85 1.88 1.95 1.99 2.05 2.33 2.44 2.26 2.15 2.22 2.32 2.32 2.42
0.26 0.49 0.85 1.51 2.18 1.90 1.39 0.82 0.63 0.48 0.48 0.49 0.45 0.52 0.70 0.87 0.76 1.05 1.41 1.22 0.79 0.71 0.72 0.79 1.31 1.67 1.86 1.75 1.62 1.55 1.54 1.57 1.52 1.67 1.65 1.66 1.87 2.02 2.06 1.94 1.91 2.03 2.10 2.09 2.12 2.10 2.32 2.33 2.27
0.39 0.63 1.04 1.53 1.35 1.22 1.03 0.68 0.55 0.41 0.50 0.66 0.57 0.52 0.75 1.02 0.87 1.05 1.15 0.82 0.66 0.62 0.64 0.89 1.45 1.67 1.66 1.66 1.57 1.45 1.52 1.63 1.65 1.63 1.54 1.60 1.73 1.91 1.94 1.91 1.92 1.92 2.05 2.17 2.23 2.11 2.31 2.28 2.16
0.42 0.68 0.94 0.94 0.59 0.48 0.53 0.55 0.53 0.54 0.72 0.84 0.72 0.72 0.87 0.91 0.89 0.95 0.82 0.66 0.61 0.71 0.74 1.04 1.45 1.49 1.55 1.58 1.52 1.46 1.57 1.72 1.68 1.59 1.57 1.69 1.76 1.84 1.75 1.76 1.82 1.79 2.01 2.21 2.32 2.27 2.31 2.21 2.09
0.40 0.73 1.01 0.61 0.32 0.33 0.33 0.38 0.52 0.59 0.84 0.91 0.69 0.91 1.25 1.20 0.90 0.83 0.69 0.68 0.68 0.82 0.99 1.18 1.41 1.42 1.48 1.47 1.49 1.54 1.58 1.61 1.63 1.59 1.50 1.61 1.72 1.77 1.72 1.72 1.78 1.81 2.08 2.23 2.29 2.36 2.38 2.33 2.36
0.52 0.66 0.67 0.42 0.26 0.23 0.25 0.32 0.46 0.58 0.79 0.87 0.75 1.14 1.65 1.64 1.30 1.10 0.98 1.08 1.04 1.14 1.27 1.40 1.59 1.61 1.56 1.56 1.63 1.66 1.61 1.56 1.59 1.59 1.54 1.49 1.61 1.65 1.61 1.62 1.66 1.81 2.09 2.21 2.26 2.32 2.27 2.29 2.37
0.47 0.46 0.39 0.23 0.16 0.19 0.24 0.29 0.48 0.64 0.80 1.01 0.99 1.30 1.77 2.07 1.71 1.40 1.32 1.38 1.45 1.48 1.54 1.52 1.57 1.64 1.69 1.77 1.83 1.75 1.63 1.63 1.69 1.69 1.58 1.52 1.60 1.52 1.42 1.47 1.66 1.76 1.99 2.19 2.30 2.28 2.21 2.19 2.32
0.28 0.23 0.22 0.13 0.09 0.15 0.19 0.27 0.42 0.61 0.87 0.99 1.01 1.22 1.55 1.71 1.59 1.61 1.71 1.79 1.96 1.89 1.78 1.57 1.47 1.57 1.51 1.51 1.67 1.67 1.63 1.73 1.81 1.81 1.74 1.79 1.76 1.57 1.59 1.62 1.75 1.75 1.93 2.02 2.05 2.10 2.14 2.15 2.28
0.18 0.17 0.15 0.10 0.06 0.11 0.19 0.34 0.48 0.52 0.69 1.02 1.24 1.11 1.03 1.20 1.59 1.88 2.33 2.40 2.50 2.29 1.87 1.53 1.47 1.61 1.58 1.44 1.46 1.86 1.94 1.98 2.08 2.23 2.28 2.44 2.46 2.00 2.02 1.76 1.93 2.10 2.10 2.09 2.22 2.30 2.38 2.54 2.47
0.11 0.13 0.11 0.06 0.04 0.07 0.19 0.41 0.56 0.69 1.04 1.40 1.56 1.36 1.13 1.21 1.75 2.16 2.45 2.65 2.32 2.30 2.21 1.92 1.69 1.63 1.67 1.52 1.72 2.36 2.35 2.34 2.58 2.86 2.76 2.90 2.72 2.44 1.84 1.88 2.42 2.52 2.51 2.61 2.93 3.13 2.84 2.71 2.60
0.06 0.06 0.05 0.05 0.04 0.08 0.21 0.25 0.33 0.61 1.26 1.67 1.85 1.50 1.27 1.42 1.88 2.42 2.64 2.56 2.27 2.23 2.12 2.17 2.02 1.89 1.88 2.04 1.98 2.25 2.60 2.73 2.83 2.81 2.80 2.90 2.41 2.07 1.97 2.40 2.92 2.83 2.81 2.94 3.18 3.36 2.76 2.85 3.44
0.04 0.04 0.03 0.04 0.04 0.07 0.13 0.21 0.36 0.68 1.18 1.44 1.34 1.19 1.24 1.50 1.80 2.44 2.85 2.72 2.56 2.49 2.35 2.60 2.52 2.48 2.52 2.36 2.34 2.20 2.25 2.31 2.36 2.48 2.36 2.49 2.57 2.50 2.61 2.91 2.98 3.00 3.17 3.46 3.26 3.37 3.31 3.49 3.50
0.04 0.04 0.04 0.04 0.05 0.07 0.12 0.22 0.35 0.60 0.87 0.94 0.86 1.03 1.49 1.62 1.96 2.61 3.17 3.12 3.04 2.92 2.97 3.10 3.14 3.27 3.11 2.90 2.75 2.29 2.33 2.22 2.12 2.14 2.12 2.34 2.69 2.84 3.13 2.99 3.01 2.73 2.84 3.16 3.47 3.48 3.66 3.93 3.89
0.04 0.04 0.05 0.08 0.10 0.10 0.14 0.25 0.41 0.80 0.80 0.74 0.89 1.21 1.59 2.03 2.23 2.69 3.38 3.59 3.51 3.51 3.73 3.69 3.69 3.73 3.57 3.21 2.98 2.70 2.36 2.39 2.16 2.14 2.20 2.67 2.97 3.08 3.28 3.12 3.04 2.75 2.74 3.04 3.35 3.41 3.74 3.86 3.98
0.06 0.08 0.14 0.17 0.15 0.15 0.23 0.62 0.75 0.87 0.82 0.83 1.07 1.33 1.82 2.44 2.71 2.98 3.45 3.79 3.93 4.19 4.38 4.57 4.43 4.12 4.20 3.85 3.12 2.61 2.34 2.19 2.32 2.45 2.51 2.82 2.99 3.28 3.48 3.40 3.04 2.82 2.89 3.07 3.06 3.21 3.71 3.61 3.59
0.11 0.15 0.34 0.29 0.17 0.20 0.35 0.91 0.93 0.90 0.94 1.03 1.25 1.60 1.96 2.45 2.58 2.83 3.28 3.83 4.34 4.73 5.15 5.35 4.92 4.81 4.84 4.53 3.94 3.36 3.02 2.85 2.89 2.91 2.76 2.57 2.75 2.90 3.22 2.99 2.60 2.69 2.87 3.07 3.11 3.08 3.46 3.62 3.66
0.14 0.19 0.32 0.31 0.20 0.20 0.33 0.77 0.77 0.65 0.99 1.39 1.64 1.79 1.96 2.13 2.29 2.48 2.85 3.58 4.40 4.99 5.72 6.12 6.32 5.81 5.42 4.87 4.46 3.93 3.63 3.45 3.19 2.93 2.69 2.38 2.13 2.05 2.41 2.39 2.33 2.35 2.63 2.71 2.41 2.65 2.99 3.22 3.36
0.14 0.20 0.27 0.34 0.25 0.25 0.39 0.67 0.78 0.68 0.97 1.33 1.39 1.65 1.75 1.78 2.00 2.38 2.90 3.45 4.34 5.09 5.82 6.24 6.48 5.96 5.24 4.95 4.93 4.60 4.02 3.58 3.20 2.87 2.68 2.28 2.12 1.88 2.14 2.21 2.05 2.01 2.24 2.34 2.48 2.80 2.89 2.78 2.85
0.09 0.17 0.25 0.27 0.23 0.33 0.51 0.76 0.92 0.89 0.94 1.07 1.19 1.38 1.40 1.45 1.73 2.21 2.86 3.54 4.35 5.46 6.13 6.28 6.04 5.35 4.85 4.45 4.21 3.95 3.70 3.42 2.94 2.55 2.31 2.21 2.09 2.04 2.33 2.16 2.20 2.04 2.09 2.16 2.23 2.49 2.60 2.39 2.54
0.07 0.14 0.23 0.22 0.19 0.22 0.48 0.87 1.00 1.01 1.07 1.04 1.10 1.18 1.11 1.26 1.61 2.21 2.98 3.79 4.49 5.03 5.38 5.48 5.11 4.37 3.88 3.65 3.60 3.34 3.15 2.83 2.62 2.38 2.36 2.05 1.98 2.02 1.95 2.15 1.99 1.93 2.17 2.14 2.22 2.45 2.44 2.20 2.35
0.09 0.12 0.18 0.22 0.20 0.24 0.48 1.06 1.26 1.14 1.11 1.08 0.97 0.95 1.05 1.28 1.81 2.56 3.37 4.15 4.48 4.51 4.29 4.00 3.82 3.43 3.32 3.29 3.10 2.89 2.87 2.62 2.46 2.24 2.16 1.86 1.68 1.69 1.77 1.82 1.77 1.89 1.79 2.00 2.17 2.29 2.50 2.49 2.25
0.10 0.09 0.08 0.10 0.17 0.41 0.57 1.14 1.32 1.29 1.22 1.06 1.04 1.05 1.15 1.43 1.95 2.64 3.18 3.43 3.58 3.51 3.23 3.04 2.98 2.90 2.86 2.78 2.69 2.41 2.29 2.28 2.14 2.05 2.05 1.93 1.71 1.68 1.68 1.67 1.80 1.83 1.70 2.00 1.75 1.93 2.30 2.51 2.30
0.07 0.06 0.06 0.11 0.23 0.44 0.60 0.96 1.32 1.30 1.37 0.95 0.81 0.90 1.00 1.24 1.52 1.72 1.93 2.09 2.23 2.26 2.43 2.50 2.63 2.76 2.67 2.61 2.60 2.55 2.27 2.24 2.20 2.19 2.28 2.14 1.91 1.70 1.51 1.63 1.84 1.89 1.76 1.80 1.82 2.06 2.09 2.18 2.20
0.05 0.08 0.14 0.26 0.44 0.81 0.82 1.00 1.35 1.34 1.23 0.83 0.63 0.65 0.80 0.91 0.97 1.06 1.15 1.28 1.51 1.57 1.79 2.00 2.13 2.27 2.45 2.49 2.33 2.27 2.23 2.29 2.35 2.29 2.10 1.89 1.75 1.64 1.52 1.65 1.94 1.95 1.92 1.87 1.85 1.89 1.94 2.13 2.25
0.07 0.13 0.39 0.75 1.11 1.16 0.73 0.84 1.25 1.18 0.86 0.59 0.51 0.48 0.49 0.67 0.81 0.94 1.05 1.15 1.37 1.33 1.41 1.63 1.70 1.71 1.87 1.92 1.90 1.97 2.13 2.19 2.08 1.98 1.89 1.72 1.46 1.45 1.55 1.64 1.86 1.88 1.91 1.83 2.01 2.05 1.97 2.11 2.17
0.08 0.13 0.28 0.49 0.59 0.77 0.82 1.30 1.48 0.88 0.60 0.46 0.44 0.43 0.43 0.59 0.72 0.81 0.81 0.89 1.02 1.03 1.17 1.27 1.36 1.43 1.50 1.61 1.74 1.72 1.87 1.88 1.79 1.89 1.76 1.62 1.40 1.29 1.34 1.48 1.54 1.63 1.69 1.67 2.10 1.99 2.02 2.11 2.01
0.09 0.09 0.13 0.19 0.27 0.60 1.00 1.36 1.32 0.80 0.61 0.45 0.43 0.45 0.47 0.45 0.58 0.64 0.58 0.59 0.73 0.87 0.99 1.08 1.15 1.28 1.31 1.47 1.55 1.53 1.63 1.73 1.79 1.81 1.69 1.50 1.52 1.35 1.39 1.46 1.68 1.82 1.87 1.92 2.17 2.09 2.06 2.21 2.03
0.10 0.12 0.14 0.16 0.26 0.53 0.93 1.42 1.68 1.22 0.69 0.53 0.51 0.51 0.55 0.47 0.50 0.54 0.54 0.50 0.59 0.76 1.02 1.08 1.09 1.23 1.26 1.36 1.38 1.25 1.44 1.58 1.75 1.71 1.61 1.55 1.58 1.52 1.64 1.71 1.86 1.99 1.95 1.95 2.13 2.08 2.17 2.27 2.16
0.11 0.12 0.14 0.16 0.19 0.33 0.77 1.10 0.95 0.94 0.71 0.71 0.67 0.59 0.58 0.53 0.55 0.53 0.52 0.52 0.50 0.63 0.86 0.92 1.07 1.19 1.24 1.31 1.41 1.48 1.50 1.45 1.58 1.63 1.60 1.64 1.68 1.65 1.72 1.82 1.94 1.97 2.03 2.14 2.23 2.05 2.14 2.26 2.42
0.14 0.15 0.15 0.17 0.19 0.23 0.37 0.61 0.61 0.76 0.72 0.74 0.80 0.72 0.64 0.48 0.45 0.48 0.52 0.57 0.55 0.57 0.70 0.85 1.03 1.19 1.24 1.31 1.45 1.55 1.72 1.68 1.62 1.61 1.66 1.73 1.85 1.93 1.89 1.95 2.00 1.87 1.92 2.14 2.20 2.17 2.18 2.22 2.25